Weather History for KINJ - June, 2013

Change the Weather History Date:

Thursday, June 13, 2013

  Actual Average (KACT) Record (KACT)
Temperature  
Mean Temperature 83 °F 81 °F  
Max Temperature 95 °F 91 °F 103 °F (2006)
Min Temperature 71 °F 71 °F 56 °F (1995)
Degree Days  
Heating Degree Days 0 0  
Month to date heating degree days 0  
Since 1 June heating degree days 0  
Since 1 July heating degree days 2142  
Cooling Degree Days 18 16  
Month to date cooling degree days 192  
Year to date cooling degree days 644  
Since 1 June cooling degree days 192  
Growing Degree Days 33 (Base 50)    
Moisture  
Dew Point 67 °F    
Average Humidity 60    
Maximum Humidity 88    
Minimum Humidity 34    
Precipitation  
Precipitation 0.00 in 0.12 in 1.22 in (1989)
Month to date precipitation 1.78  
Year to date precipitation 16.67  
Sea Level Pressure  
Sea Level Pressure 30.00 in    
Wind  
Wind Speed 6 mph (South)    
Max Wind Speed 12 mph    
Max Gust Speed 16 mph    
Visibility 10 miles    
Events      
T = Trace of Precipitation, MM = Missing Value Source: NWS Daily Summary

Daily Weather History Graph

Daily Weather History Graph

Search for Another Location

Airport or City:

Trip Planner

Search our weather history database for the weather conditions in past years. The results will help you decide how hot, cold, wet, or windy it might be!

Date:

Astronomy

Jun. 13, 2013 Rise Set
Actual Time 6:21 AM CDT 8:35 PM CDT
Civil Twilight 5:53 AM CDT 9:03 PM CDT
Nautical Twilight 5:18 AM CDT 9:38 PM CDT
Astronomical Twilight 4:41 AM CDT 10:15 PM CDT
Moon 10:46 AM CDT (6/13) 11:58 PM CDT (6/13)
Length of Visible Light 15h 10m
Length of Day
14h 14m
Waxing Crescent, 22% of the Moon is Illuminated
Jun 13
Waxing Crescent
Jun 16
First Quarter
Jun 23
Full
Jun 29
Last Quarter
Jul 8
New

Hourly Weather History & Observations

Time (CDT) Temp. Heat Index Dew Point Humidity Pressure Visibility Wind Dir Wind Speed Gust Speed Precip Events Conditions
12:15 AM 78.8 °F - 66.2 °F 65% 30.00 in 10.0 mi South 9.2 mph - N/A   Clear
12:55 AM 77.0 °F - 64.4 °F 65% 30.01 in 10.0 mi South 4.6 mph - N/A   Clear
1:15 AM 75.2 °F - 64.4 °F 69% 30.01 in 10.0 mi SSE 4.6 mph - N/A   Clear
1:35 AM 73.4 °F - 64.4 °F 73% 30.01 in 10.0 mi SSE 4.6 mph - N/A   Clear
1:55 AM 73.4 °F - 64.4 °F 73% 30.01 in 10.0 mi Calm Calm - N/A   Clear
2:15 AM 75.2 °F - 64.4 °F 69% 30.01 in 10.0 mi SSE 4.6 mph - N/A   Clear
2:35 AM 73.4 °F - 64.4 °F 73% 30.01 in 10.0 mi South 5.8 mph - N/A   Clear
2:55 AM 73.4 °F - 64.4 °F 73% 30.01 in 10.0 mi SSE 5.8 mph - N/A   Clear
3:15 AM 71.6 °F - 64.4 °F 78% 30.02 in 10.0 mi South 4.6 mph - N/A   Clear
3:35 AM 71.6 °F - 64.4 °F 78% 30.01 in 10.0 mi Calm Calm - N/A   Clear
3:55 AM 71.6 °F - 64.4 °F 78% 30.01 in 10.0 mi South 8.1 mph - N/A   Clear
4:35 AM 71.6 °F - 66.2 °F 83% 30.01 in 10.0 mi SSE 6.9 mph - N/A   Clear
4:55 AM 71.6 °F - 66.2 °F 83% 30.02 in 10.0 mi South 4.6 mph - N/A   Clear
5:15 AM 71.6 °F - 68.0 °F 88% 30.02 in 10.0 mi South 6.9 mph - N/A   Clear
5:35 AM 71.6 °F - 68.0 °F 88% 30.03 in 10.0 mi South 5.8 mph - N/A   Clear
5:55 AM 71.6 °F - 68.0 °F 88% 30.03 in 10.0 mi South 4.6 mph - N/A   Clear
6:15 AM 71.6 °F - 68.0 °F 88% 30.04 in 10.0 mi South 4.6 mph - N/A   Clear
6:35 AM 71.6 °F - 68.0 °F 88% 30.05 in 10.0 mi Calm Calm - N/A   Clear
6:55 AM 71.6 °F - 68.0 °F 88% 30.05 in 10.0 mi Calm Calm - N/A   Clear
7:15 AM 71.6 °F - 68.0 °F 88% 30.06 in 5.0 mi Calm Calm - N/A   Clear
7:35 AM 73.4 °F - 69.8 °F 88% 30.06 in 10.0 mi South 6.9 mph - N/A   Clear
8:15 AM 77.0 °F - 69.8 °F 78% 30.08 in 10.0 mi South 8.1 mph - N/A   Clear
8:35 AM 78.8 °F - 69.8 °F 74% 30.08 in 10.0 mi South 8.1 mph - N/A   Clear
8:55 AM 78.8 °F - 69.8 °F 74% 30.08 in 10.0 mi SSW 9.2 mph - N/A   Clear
9:15 AM 80.6 °F 83.9 °F 69.8 °F 70% 30.09 in 10.0 mi SSW 10.4 mph - N/A   Clear
9:35 AM 82.4 °F 86.3 °F 69.8 °F 66% 30.09 in 10.0 mi SSW 11.5 mph 16.1 mph N/A   Clear
9:55 AM 82.4 °F 86.3 °F 69.8 °F 66% 30.08 in 10.0 mi SSW 11.5 mph - N/A   Clear
10:15 AM 84.2 °F 88.4 °F 69.8 °F 62% 30.08 in 10.0 mi SSW 9.2 mph - N/A   Clear
10:35 AM 86.0 °F 90.4 °F 69.8 °F 58% 30.08 in 10.0 mi South 8.1 mph - N/A   Clear
10:55 AM 86.0 °F 90.4 °F 69.8 °F 58% 30.08 in 10.0 mi SSW 6.9 mph - N/A   Clear
11:15 AM 86.0 °F 90.4 °F 69.8 °F 58% 30.08 in 10.0 mi SSW 6.9 mph - N/A   Clear
11:55 AM 87.8 °F 92.6 °F 69.8 °F 55% 30.07 in 10.0 mi South 10.4 mph - N/A   Clear
12:15 PM 89.6 °F 93.4 °F 68.0 °F 49% 30.07 in 10.0 mi SSW 10.4 mph 16.1 mph N/A   Clear
12:35 PM 89.6 °F 93.4 °F 68.0 °F 49% 30.06 in 10.0 mi SSW 11.5 mph 16.1 mph N/A   Clear
12:55 PM 89.6 °F 93.4 °F 68.0 °F 49% 30.05 in 10.0 mi South 6.9 mph - N/A   Clear
1:15 PM 89.6 °F 93.4 °F 68.0 °F 49% 30.05 in 10.0 mi SSW 6.9 mph - N/A   Clear
1:35 PM 91.4 °F 95.4 °F 68.0 °F 46% 30.04 in 10.0 mi SSE 6.9 mph - N/A   Clear
1:55 PM 91.4 °F 95.4 °F 68.0 °F 46% 30.03 in 10.0 mi SSW 10.4 mph - N/A   Clear
2:15 PM 91.4 °F 95.4 °F 68.0 °F 46% 30.02 in 10.0 mi South 9.2 mph - N/A   Clear
2:35 PM 91.4 °F 95.4 °F 68.0 °F 46% 30.01 in 10.0 mi South 10.4 mph - N/A   Clear
2:55 PM 93.2 °F 97.7 °F 68.0 °F 44% 30.00 in 10.0 mi South 5.8 mph - N/A   Clear
3:35 PM 95.0 °F 97.0 °F 64.4 °F 36% 29.97 in 10.0 mi Calm Calm - N/A   Clear
3:55 PM 95.0 °F 97.0 °F 64.4 °F 36% 29.97 in 10.0 mi South 5.8 mph - N/A   Clear
4:15 PM 95.0 °F 97.0 °F 64.4 °F 36% 29.96 in 10.0 mi South 8.1 mph - N/A   Clear
4:35 PM 95.0 °F 96.0 °F 62.6 °F 34% 29.95 in 10.0 mi SE 8.1 mph - N/A   Clear
4:55 PM 95.0 °F 96.0 °F 62.6 °F 34% 29.95 in 10.0 mi SSE 8.1 mph - N/A   Clear
5:15 PM 95.0 °F 97.0 °F 64.4 °F 36% 29.94 in 10.0 mi SSE 10.4 mph - N/A   Clear
5:35 PM 95.0 °F 98.5 °F 66.2 °F 39% 29.94 in 10.0 mi SSE 8.1 mph - N/A   Clear
5:55 PM 95.0 °F 97.0 °F 64.4 °F 36% 29.93 in 10.0 mi South 8.1 mph - N/A   Clear
6:15 PM 95.0 °F 96.0 °F 62.6 °F 34% 29.93 in 10.0 mi South 9.2 mph - N/A   Clear
6:35 PM 95.0 °F 96.0 °F 62.6 °F 34% 29.92 in 10.0 mi South 9.2 mph - N/A   Clear
6:55 PM 93.2 °F 94.1 °F 62.6 °F 36% 29.91 in 10.0 mi South 8.1 mph - N/A   Clear
7:15 PM 93.2 °F 94.9 °F 64.4 °F 38% 29.91 in 10.0 mi SSE 6.9 mph - N/A   Clear
7:35 PM 91.4 °F 92.1 °F 62.6 °F 38% 29.92 in 10.0 mi SSE 6.9 mph - N/A   Clear
7:55 PM 91.4 °F 93.2 °F 64.4 °F 41% 29.92 in 10.0 mi SE 5.8 mph - N/A   Clear
8:35 PM 86.0 °F 88.2 °F 66.2 °F 51% 29.93 in 10.0 mi SE 4.6 mph - N/A   Clear
8:55 PM 82.4 °F 84.6 °F 66.2 °F 58% 29.93 in 10.0 mi SE 3.5 mph - N/A   Clear
9:15 PM 82.4 °F 84.6 °F 66.2 °F 58% 29.93 in 10.0 mi SE 4.6 mph - N/A   Clear
9:35 PM 80.6 °F 82.7 °F 66.2 °F 61% 29.93 in 10.0 mi SE 4.6 mph - N/A   Clear
9:55 PM 80.6 °F 82.7 °F 66.2 °F 61% 29.93 in 10.0 mi SE 3.5 mph - N/A   Clear
10:15 PM 80.6 °F 82.7 °F 66.2 °F 61% 29.94 in 10.0 mi SE 4.6 mph - N/A   Clear
10:35 PM 80.6 °F 82.7 °F 66.2 °F 61% 29.95 in 10.0 mi SE 4.6 mph - N/A   Clear
10:55 PM 80.6 °F 82.7 °F 66.2 °F 61% 29.95 in 10.0 mi SSE 6.9 mph - N/A   Clear
11:15 PM 80.6 °F 82.7 °F 66.2 °F 61% 29.96 in 10.0 mi South 8.1 mph - N/A   Clear
11:35 PM 78.8 °F - 66.2 °F 65% 29.96 in 10.0 mi South 5.8 mph - N/A   Clear